Time,TemperatureF,DewpointF,PressureIn,WindDirection,WindDirectionDegrees,WindSpeedMPH,WindSpeedGustMPH,Humidity,HourlyPrecipIn,Conditions,Clouds,dailyrainin,SoftwareType,DateUTC
2013-09-15 00:01:00,72.3,62.0,29.81,SSW,200,2.0,-999.0,70,0.00,,,0.00,WeatherSnoop3.0,2013-09-15 05:01:00,
2013-09-15 00:06:00,72.3,62.0,29.80,SSE,151,3.0,-999.0,70,0.00,,,0.00,WeatherSnoop3.0,2013-09-15 05:06:00,
2013-09-15 00:11:00,72.2,61.9,29.80,SE,137,3.0,-999.0,70,0.00,,,0.00,WeatherSnoop3.0,2013-09-15 05:11:00,
2013-09-15 00:16:00,72.2,61.9,29.81,SW,229,4.0,-999.0,70,0.00,,,0.00,WeatherSnoop3.0,2013-09-15 05:16:00,
2013-09-15 00:21:00,72.0,61.7,29.81,SE,137,6.0,-999.0,70,0.00,,,0.00,WeatherSnoop3.0,2013-09-15 05:21:00,
2013-09-15 00:26:00,71.9,61.6,29.81,SSE,158,4.0,-999.0,70,0.00,,,0.00,WeatherSnoop3.0,2013-09-15 05:26:00,
2013-09-15 00:31:00,71.8,61.9,29.81,ESE,119,3.0,-999.0,71,0.00,,,0.00,WeatherSnoop3.0,2013-09-15 05:31:00,
2013-09-15 00:36:00,71.7,61.8,29.81,SE,134,2.0,-999.0,71,0.00,,,0.00,WeatherSnoop3.0,2013-09-15 05:36:00,
2013-09-15 00:41:00,71.6,61.7,29.81,ESE,110,3.0,-999.0,71,0.00,,,0.00,WeatherSnoop3.0,2013-09-15 05:41:00,
2013-09-15 00:46:00,71.4,61.5,29.81,SSE,158,1.0,-999.0,71,0.00,,,0.00,WeatherSnoop3.0,2013-09-15 05:46:00,
2013-09-15 00:51:00,71.1,61.6,29.81,SSE,165,2.0,-999.0,72,0.00,,,0.00,WeatherSnoop3.0,2013-09-15 05:51:00,
2013-09-15 00:56:00,70.8,61.3,29.81,SE,128,1.0,-999.0,72,0.00,,,0.00,WeatherSnoop3.0,2013-09-15 05:56:00,
2013-09-15 01:01:00,70.7,61.6,29.81,SSW,205,0.0,-999.0,73,0.00,,,0.00,WeatherSnoop3.0,2013-09-15 06:01:00,
2013-09-15 01:06:00,70.5,61.4,29.82,SSE,150,0.0,-999.0,73,0.00,,,0.00,WeatherSnoop3.0,2013-09-15 06:06:00,
2013-09-15 01:11:00,70.2,61.1,29.81,SE,140,1.0,-999.0,73,0.00,,,0.00,WeatherSnoop3.0,2013-09-15 06:11:00,
2013-09-15 01:16:00,69.9,61.2,29.81,SE,145,1.0,-999.0,74,0.00,,,0.00,WeatherSnoop3.0,2013-09-15 06:16:00,
2013-09-15 01:21:00,69.8,61.1,29.81,SE,137,2.0,-999.0,74,0.00,,,0.00,WeatherSnoop3.0,2013-09-15 06:21:00,
2013-09-15 01:26:00,69.7,61.4,29.81,SW,226,2.0,-999.0,75,0.00,,,0.00,WeatherSnoop3.0,2013-09-15 06:26:00,
2013-09-15 01:31:00,69.6,61.3,29.81,SE,138,1.0,-999.0,75,0.00,,,0.00,WeatherSnoop3.0,2013-09-15 06:31:00,
2013-09-15 01:36:00,69.5,61.2,29.81,SSE,149,1.0,-999.0,75,0.00,,,0.00,WeatherSnoop3.0,2013-09-15 06:36:00,
2013-09-15 01:41:00,69.4,61.1,29.81,SSE,155,0.0,-999.0,75,0.00,,,0.00,WeatherSnoop3.0,2013-09-15 06:41:00,
2013-09-15 01:46:00,69.2,60.9,29.81,SE,136,3.0,-999.0,75,0.00,,,0.00,WeatherSnoop3.0,2013-09-15 06:46:00,
2013-09-15 01:51:00,69.1,61.2,29.81,SE,146,2.0,-999.0,76,0.00,,,0.00,WeatherSnoop3.0,2013-09-15 06:51:00,
2013-09-15 01:56:00,69.0,61.1,29.81,SSE,155,2.0,-999.0,76,0.00,,,0.00,WeatherSnoop3.0,2013-09-15 06:56:00,
2013-09-15 02:01:00,69.0,61.1,29.81,SSE,153,1.0,-999.0,76,0.00,,,0.00,WeatherSnoop3.0,2013-09-15 07:01:00,
2013-09-15 02:06:00,68.9,61.0,29.81,SE,139,1.0,-999.0,76,0.00,,,0.00,WeatherSnoop3.0,2013-09-15 07:06:00,
2013-09-15 02:11:00,68.8,61.3,29.81,SE,142,2.0,-999.0,77,0.00,,,0.00,WeatherSnoop3.0,2013-09-15 07:11:00,
2013-09-15 02:16:00,68.7,61.2,29.81,SSE,152,2.0,-999.0,77,0.00,,,0.00,WeatherSnoop3.0,2013-09-15 07:16:00,
2013-09-15 02:21:00,68.7,61.2,29.80,SSE,156,1.0,-999.0,77,0.00,,,0.00,WeatherSnoop3.0,2013-09-15 07:21:00,
2013-09-15 02:26:00,68.7,61.2,29.80,SE,128,2.0,-999.0,77,0.00,,,0.00,WeatherSnoop3.0,2013-09-15 07:26:00,
2013-09-15 02:31:00,68.6,61.1,29.80,SSE,150,2.0,-999.0,77,0.00,,,0.00,WeatherSnoop3.0,2013-09-15 07:31:00,
2013-09-15 02:36:00,68.6,60.7,29.80,SE,145,2.0,-999.0,76,0.00,,,0.00,WeatherSnoop3.0,2013-09-15 07:36:00,
2013-09-15 02:41:00,68.6,60.7,29.80,SSE,155,2.0,-999.0,76,0.00,,,0.00,WeatherSnoop3.0,2013-09-15 07:41:00,
2013-09-15 02:46:00,68.6,60.7,29.80,SSW,203,1.0,-999.0,76,0.00,,,0.00,WeatherSnoop3.0,2013-09-15 07:46:00,
2013-09-15 02:51:00,68.7,60.8,29.80,SSE,162,2.0,-999.0,76,0.00,,,0.00,WeatherSnoop3.0,2013-09-15 07:51:00,
2013-09-15 02:56:00,68.7,60.8,29.80,SE,131,3.0,-999.0,76,0.00,,,0.00,WeatherSnoop3.0,2013-09-15 07:56:00,
2013-09-15 03:01:00,68.8,60.9,29.80,SSE,153,1.0,-999.0,76,0.00,,,0.00,WeatherSnoop3.0,2013-09-15 08:01:00,
2013-09-15 03:06:00,68.8,60.9,29.80,SE,133,1.0,-999.0,76,0.00,,,0.00,WeatherSnoop3.0,2013-09-15 08:06:00,
2013-09-15 03:11:00,68.7,60.8,29.80,SE,141,1.0,-999.0,76,0.00,,,0.00,WeatherSnoop3.0,2013-09-15 08:11:00,
2013-09-15 03:16:00,68.8,60.9,29.80,SE,128,2.0,-999.0,76,0.00,,,0.00,WeatherSnoop3.0,2013-09-15 08:16:00,
2013-09-15 03:21:00,68.7,60.8,29.80,SSE,155,2.0,-999.0,76,0.00,,,0.00,WeatherSnoop3.0,2013-09-15 08:21:00,
2013-09-15 03:26:00,68.8,60.9,29.80,ESE,123,3.0,-999.0,76,0.00,,,0.00,WeatherSnoop3.0,2013-09-15 08:26:00,
2013-09-15 03:31:00,68.7,60.8,29.80,SSE,150,1.0,-999.0,76,0.00,,,0.00,WeatherSnoop3.0,2013-09-15 08:31:00,
2013-09-15 03:36:00,68.6,60.7,29.79,SE,146,1.0,-999.0,76,0.00,,,0.00,WeatherSnoop3.0,2013-09-15 08:36:00,
2013-09-15 03:41:00,68.6,60.7,29.80,SE,145,1.0,-999.0,76,0.00,,,0.00,WeatherSnoop3.0,2013-09-15 08:41:00,
2013-09-15 03:46:00,68.6,60.7,29.80,ESE,116,1.0,-999.0,76,0.00,,,0.00,WeatherSnoop3.0,2013-09-15 08:46:00,
2013-09-15 03:51:00,68.6,60.7,29.80,SSE,150,1.0,-999.0,76,0.00,,,0.00,WeatherSnoop3.0,2013-09-15 08:51:00,
2013-09-15 03:56:00,68.4,60.5,29.80,South,187,0.0,-999.0,76,0.00,,,0.00,WeatherSnoop3.0,2013-09-15 08:56:00,
2013-09-15 04:01:00,68.4,60.5,29.80,SE,126,0.0,-999.0,76,0.00,,,0.00,WeatherSnoop3.0,2013-09-15 09:01:00,
2013-09-15 04:06:00,68.3,60.8,29.80,SSE,155,2.0,-999.0,77,0.00,,,0.00,WeatherSnoop3.0,2013-09-15 09:06:00,
2013-09-15 04:11:00,68.3,60.4,29.80,SE,129,1.0,-999.0,76,0.00,,,0.00,WeatherSnoop3.0,2013-09-15 09:11:00,
2013-09-15 04:16:00,68.1,60.6,29.80,SE,145,2.0,-999.0,77,0.00,,,0.00,WeatherSnoop3.0,2013-09-15 09:16:00,
2013-09-15 04:21:00,68.0,60.5,29.80,South,177,1.0,-999.0,77,0.00,,,0.00,WeatherSnoop3.0,2013-09-15 09:21:00,
2013-09-15 04:26:00,68.0,60.5,29.80,SSW,203,0.0,-999.0,77,0.00,,,0.00,WeatherSnoop3.0,2013-09-15 09:26:00,
2013-09-15 04:31:00,67.9,60.4,29.80,SE,134,3.0,-999.0,77,0.00,,,0.00,WeatherSnoop3.0,2013-09-15 09:31:00,
2013-09-15 04:36:00,67.9,60.4,29.80,SE,139,3.0,-999.0,77,0.00,,,0.00,WeatherSnoop3.0,2013-09-15 09:36:00,
2013-09-15 04:41:00,67.8,60.3,29.80,SE,143,1.0,-999.0,77,0.00,,,0.00,WeatherSnoop3.0,2013-09-15 09:41:00,
2013-09-15 04:46:00,67.8,60.3,29.80,SE,124,2.0,-999.0,77,0.00,,,0.00,WeatherSnoop3.0,2013-09-15 09:46:00,
2013-09-15 04:51:00,67.8,60.3,29.80,SSE,148,2.0,-999.0,77,0.00,,,0.00,WeatherSnoop3.0,2013-09-15 09:51:00,
2013-09-15 04:56:00,67.8,60.3,29.80,SE,142,3.0,-999.0,77,0.00,,,0.00,WeatherSnoop3.0,2013-09-15 09:56:00,
2013-09-15 05:01:00,67.8,60.7,29.80,SE,132,1.0,-999.0,78,0.00,,,0.00,WeatherSnoop3.0,2013-09-15 10:01:00,
2013-09-15 05:06:00,67.8,60.3,29.80,South,172,2.0,-999.0,77,0.00,,,0.00,WeatherSnoop3.0,2013-09-15 10:06:00,
2013-09-15 05:11:00,67.8,60.3,29.80,SSE,152,1.0,-999.0,77,0.00,,,0.00,WeatherSnoop3.0,2013-09-15 10:11:00,
2013-09-15 05:16:00,67.8,60.7,29.81,SE,137,2.0,-999.0,78,0.00,,,0.00,WeatherSnoop3.0,2013-09-15 10:16:00,
2013-09-15 05:21:00,67.8,60.7,29.81,SSE,165,1.0,-999.0,78,0.00,,,0.00,WeatherSnoop3.0,2013-09-15 10:21:00,
2013-09-15 05:26:00,67.8,60.7,29.80,SE,145,1.0,-999.0,78,0.00,,,0.00,WeatherSnoop3.0,2013-09-15 10:26:00,
2013-09-15 05:31:00,67.8,60.7,29.81,South,169,2.0,-999.0,78,0.00,,,0.00,WeatherSnoop3.0,2013-09-15 10:31:00,
2013-09-15 05:36:00,67.7,60.6,29.80,SE,128,5.0,-999.0,78,0.00,,,0.00,WeatherSnoop3.0,2013-09-15 10:36:00,
2013-09-15 05:41:00,67.7,60.6,29.80,SSW,204,4.0,-999.0,78,0.00,,,0.00,WeatherSnoop3.0,2013-09-15 10:41:00,
2013-09-15 05:46:00,67.7,60.6,29.81,South,190,2.0,-999.0,78,0.00,,,0.00,WeatherSnoop3.0,2013-09-15 10:46:00,
2013-09-15 05:51:00,67.7,60.6,29.80,SE,132,4.0,-999.0,78,0.00,,,0.00,WeatherSnoop3.0,2013-09-15 10:51:00,
2013-09-15 05:56:00,67.6,60.5,29.80,SSE,160,3.0,-999.0,78,0.00,,,0.00,WeatherSnoop3.0,2013-09-15 10:56:00,
2013-09-15 06:01:00,67.5,60.8,29.80,SE,126,2.0,-999.0,79,0.00,,,0.00,WeatherSnoop3.0,2013-09-15 11:01:00,
2013-09-15 06:06:00,67.4,60.7,29.80,ESE,116,2.0,-999.0,79,0.00,,,0.00,WeatherSnoop3.0,2013-09-15 11:06:00,
2013-09-15 06:11:00,67.3,60.6,29.81,SE,138,2.0,-999.0,79,0.00,,,0.00,WeatherSnoop3.0,2013-09-15 11:11:00,
2013-09-15 06:16:00,67.2,60.5,29.81,SSE,158,2.0,-999.0,79,0.00,,,0.00,WeatherSnoop3.0,2013-09-15 11:16:00,
2013-09-15 06:21:00,67.1,60.4,29.81,SSE,160,0.0,-999.0,79,0.00,,,0.00,WeatherSnoop3.0,2013-09-15 11:21:00,
2013-09-15 06:26:00,66.9,60.5,29.81,SSE,150,1.0,-999.0,80,0.00,,,0.00,WeatherSnoop3.0,2013-09-15 11:26:00,
2013-09-15 06:31:00,66.8,60.4,29.81,SE,142,3.0,-999.0,80,0.00,,,0.00,WeatherSnoop3.0,2013-09-15 11:31:00,
2013-09-15 06:36:00,66.6,60.2,29.81,SE,143,1.0,-999.0,80,0.00,,,0.00,WeatherSnoop3.0,2013-09-15 11:36:00,
2013-09-15 06:41:00,66.5,60.5,29.81,SW,214,1.0,-999.0,81,0.00,,,0.00,WeatherSnoop3.0,2013-09-15 11:41:00,
2013-09-15 06:46:00,66.3,60.3,29.81,SE,146,3.0,-999.0,81,0.00,,,0.00,WeatherSnoop3.0,2013-09-15 11:46:00,
2013-09-15 06:51:00,66.2,60.2,29.82,SSE,156,0.0,-999.0,81,0.00,,,0.00,WeatherSnoop3.0,2013-09-15 11:51:00,
2013-09-15 06:56:00,66.1,60.4,29.81,SSE,154,2.0,-999.0,82,0.00,,,0.00,WeatherSnoop3.0,2013-09-15 11:56:00,
2013-09-15 07:01:00,66.0,60.3,29.81,SE,133,1.0,-999.0,82,0.00,,,0.00,WeatherSnoop3.0,2013-09-15 12:01:00,
2013-09-15 07:06:00,65.9,60.2,29.81,SE,142,3.0,-999.0,82,0.00,,,0.00,WeatherSnoop3.0,2013-09-15 12:06:00,
2013-09-15 07:11:00,65.9,60.2,29.82,SE,126,1.0,-999.0,82,0.00,,,0.00,WeatherSnoop3.0,2013-09-15 12:11:00,
2013-09-15 07:16:00,65.9,60.2,29.82,SSE,160,0.0,-999.0,82,0.00,,,0.00,WeatherSnoop3.0,2013-09-15 12:16:00,
2013-09-15 07:21:00,65.9,60.2,29.82,SSE,161,1.0,-999.0,82,0.00,,,0.00,WeatherSnoop3.0,2013-09-15 12:21:00,
2013-09-15 07:26:00,65.9,60.2,29.82,SSE,150,1.0,-999.0,82,0.00,,,0.00,WeatherSnoop3.0,2013-09-15 12:26:00,
2013-09-15 07:31:00,65.9,60.2,29.82,SE,137,2.0,-999.0,82,0.00,,,0.00,WeatherSnoop3.0,2013-09-15 12:31:00,
2013-09-15 07:36:00,66.0,60.3,29.82,SW,227,1.0,-999.0,82,0.00,,,0.00,WeatherSnoop3.0,2013-09-15 12:36:00,
2013-09-15 07:41:00,66.1,60.4,29.82,SSE,163,1.0,-999.0,82,0.00,,,0.00,WeatherSnoop3.0,2013-09-15 12:41:00,
2013-09-15 07:46:00,66.2,60.5,29.82,ESE,119,2.0,-999.0,82,0.00,,,0.00,WeatherSnoop3.0,2013-09-15 12:46:00,
2013-09-15 07:51:00,66.4,60.7,29.82,SSE,150,1.0,-999.0,82,0.00,,,0.00,WeatherSnoop3.0,2013-09-15 12:51:00,
2013-09-15 07:56:00,66.6,60.6,29.82,SSE,148,2.0,-999.0,81,0.00,,,0.00,WeatherSnoop3.0,2013-09-15 12:56:00,
2013-09-15 08:01:00,66.8,60.8,29.82,SSE,163,1.0,-999.0,81,0.00,,,0.00,WeatherSnoop3.0,2013-09-15 13:01:00,
2013-09-15 08:06:00,67.0,61.0,29.82,SW,217,2.0,-999.0,81,0.00,,,0.00,WeatherSnoop3.0,2013-09-15 13:06:00,
2013-09-15 08:11:00,67.2,61.2,29.82,SSE,158,3.0,-999.0,81,0.00,,,0.00,WeatherSnoop3.0,2013-09-15 13:11:00,
2013-09-15 08:16:00,67.4,61.0,29.82,SE,126,2.0,-999.0,80,0.00,,,0.00,WeatherSnoop3.0,2013-09-15 13:16:00,
2013-09-15 08:21:00,67.6,61.2,29.82,SE,141,2.0,-999.0,80,0.00,,,0.00,WeatherSnoop3.0,2013-09-15 13:21:00,
2013-09-15 08:26:00,67.9,61.1,29.82,SE,146,4.0,-999.0,79,0.00,,,0.00,WeatherSnoop3.0,2013-09-15 13:26:00,
2013-09-15 08:31:00,68.3,61.5,29.82,ESE,122,2.0,-999.0,79,0.00,,,0.00,WeatherSnoop3.0,2013-09-15 13:31:00,
2013-09-15 08:36:00,68.6,61.5,29.82,SSE,158,3.0,-999.0,78,0.00,,,0.00,WeatherSnoop3.0,2013-09-15 13:36:00,
2013-09-15 08:41:00,69.1,61.6,29.82,SW,224,7.0,-999.0,77,0.00,,,0.00,WeatherSnoop3.0,2013-09-15 13:41:00,
2013-09-15 08:46:00,69.4,61.9,29.82,SE,146,3.0,-999.0,77,0.00,,,0.00,WeatherSnoop3.0,2013-09-15 13:46:00,
2013-09-15 08:51:00,69.8,61.9,29.82,SSE,165,6.0,-999.0,76,0.00,,,0.00,WeatherSnoop3.0,2013-09-15 13:51:00,
2013-09-15 08:56:00,70.2,61.9,29.82,SE,126,6.0,-999.0,75,0.00,,,0.00,WeatherSnoop3.0,2013-09-15 13:56:00,
2013-09-15 09:01:00,70.6,62.3,29.82,SSW,211,2.0,-999.0,75,0.00,,,0.00,WeatherSnoop3.0,2013-09-15 14:01:00,
2013-09-15 09:06:00,71.0,62.3,29.82,SSW,194,4.0,-999.0,74,0.00,,,0.00,WeatherSnoop3.0,2013-09-15 14:06:00,
2013-09-15 09:11:00,71.6,62.9,29.83,SE,141,6.0,-999.0,74,0.00,,,0.00,WeatherSnoop3.0,2013-09-15 14:11:00,
2013-09-15 09:16:00,72.3,62.8,29.83,SSW,210,2.0,-999.0,72,0.00,,,0.00,WeatherSnoop3.0,2013-09-15 14:16:00,
2013-09-15 09:21:00,73.1,63.1,29.83,SSW,205,3.0,-999.0,71,0.00,,,0.00,WeatherSnoop3.0,2013-09-15 14:21:00,
2013-09-15 09:26:00,74.0,63.2,29.83,South,188,4.0,-999.0,69,0.00,,,0.00,WeatherSnoop3.0,2013-09-15 14:26:00,
2013-09-15 09:31:00,74.8,62.7,29.83,SSW,212,2.0,-999.0,66,0.00,,,0.00,WeatherSnoop3.0,2013-09-15 14:31:00,
2013-09-15 09:36:00,75.1,62.5,29.83,SSW,192,6.0,-999.0,65,0.00,,,0.00,WeatherSnoop3.0,2013-09-15 14:36:00,
2013-09-15 09:41:00,75.3,62.7,29.83,South,179,3.0,-999.0,65,0.00,,,0.00,WeatherSnoop3.0,2013-09-15 14:41:00,
2013-09-15 09:46:00,75.6,63.0,29.83,South,181,3.0,-999.0,65,0.00,,,0.00,WeatherSnoop3.0,2013-09-15 14:46:00,
2013-09-15 09:51:00,76.1,63.0,29.83,SSW,200,7.0,-999.0,64,0.00,,,0.00,WeatherSnoop3.0,2013-09-15 14:51:00,
2013-09-15 09:56:00,76.9,62.9,29.83,SSW,208,5.0,-999.0,62,0.00,,,0.00,WeatherSnoop3.0,2013-09-15 14:56:00,
2013-09-15 10:01:00,77.5,63.0,29.83,SW,224,4.0,-999.0,61,0.00,,,0.00,WeatherSnoop3.0,2013-09-15 15:01:00,
2013-09-15 10:06:00,78.0,63.0,29.83,SW,218,8.0,-999.0,60,0.00,,,0.00,WeatherSnoop3.0,2013-09-15 15:06:00,
2013-09-15 10:11:00,78.3,62.8,29.83,South,182,6.0,-999.0,59,0.00,,,0.00,WeatherSnoop3.0,2013-09-15 15:11:00,
2013-09-15 10:16:00,78.5,63.0,29.83,SE,145,5.0,-999.0,59,0.00,,,0.00,WeatherSnoop3.0,2013-09-15 15:16:00,
2013-09-15 10:21:00,78.9,63.3,29.83,SSE,153,5.0,-999.0,59,0.00,,,0.00,WeatherSnoop3.0,2013-09-15 15:21:00,
2013-09-15 10:26:00,79.3,63.2,29.83,SSW,200,7.0,-999.0,58,0.00,,,0.00,WeatherSnoop3.0,2013-09-15 15:26:00,
2013-09-15 10:31:00,79.6,63.5,29.83,SW,224,5.0,-999.0,58,0.00,,,0.00,WeatherSnoop3.0,2013-09-15 15:31:00,
2013-09-15 10:36:00,79.8,63.2,29.83,SSW,211,5.0,-999.0,57,0.00,,,0.00,WeatherSnoop3.0,2013-09-15 15:36:00,
2013-09-15 10:41:00,80.0,62.9,29.83,WSW,239,7.0,-999.0,56,0.00,,,0.00,WeatherSnoop3.0,2013-09-15 15:41:00,
2013-09-15 10:46:00,80.2,63.6,29.83,WSW,256,6.0,-999.0,57,0.00,,,0.00,WeatherSnoop3.0,2013-09-15 15:46:00,
2013-09-15 10:51:00,80.9,63.7,29.83,SW,226,5.0,-999.0,56,0.00,,,0.00,WeatherSnoop3.0,2013-09-15 15:51:00,
2013-09-15 10:56:00,81.6,63.8,29.83,SW,218,5.0,-999.0,55,0.00,,,0.00,WeatherSnoop3.0,2013-09-15 15:56:00,
2013-09-15 11:01:00,82.0,64.2,29.83,SSW,200,4.0,-999.0,55,0.00,,,0.00,WeatherSnoop3.0,2013-09-15 16:01:00,
2013-09-15 11:06:00,82.5,64.2,29.83,SSW,194,5.0,-999.0,54,0.00,,,0.00,WeatherSnoop3.0,2013-09-15 16:06:00,
2013-09-15 11:11:00,82.7,63.8,29.83,West,277,4.0,-999.0,53,0.00,,,0.00,WeatherSnoop3.0,2013-09-15 16:11:00,
2013-09-15 11:16:00,83.2,63.7,29.83,SSW,210,6.0,-999.0,52,0.00,,,0.00,WeatherSnoop3.0,2013-09-15 16:16:00,
2013-09-15 11:21:00,83.1,63.6,29.83,SW,216,6.0,-999.0,52,0.00,,,0.00,WeatherSnoop3.0,2013-09-15 16:21:00,
2013-09-15 11:26:00,83.7,64.7,29.83,SW,229,7.0,-999.0,53,0.00,,,0.00,WeatherSnoop3.0,2013-09-15 16:26:00,
2013-09-15 11:31:00,84.1,64.0,29.82,SSW,204,6.0,-999.0,51,0.00,,,0.00,WeatherSnoop3.0,2013-09-15 16:31:00,
2013-09-15 11:36:00,84.3,64.7,29.83,WSW,237,8.0,-999.0,52,0.00,,,0.00,WeatherSnoop3.0,2013-09-15 16:36:00,
2013-09-15 11:41:00,84.6,65.0,29.82,SSW,200,4.0,-999.0,52,0.00,,,0.00,WeatherSnoop3.0,2013-09-15 16:41:00,
2013-09-15 11:46:00,84.9,64.2,29.82,SW,218,5.0,-999.0,50,0.00,,,0.00,WeatherSnoop3.0,2013-09-15 16:46:00,
2013-09-15 11:51:00,84.7,64.5,29.82,South,169,4.0,-999.0,51,0.00,,,0.00,WeatherSnoop3.0,2013-09-15 16:51:00,
2013-09-15 11:56:00,84.5,64.4,29.82,SW,224,5.0,-999.0,51,0.00,,,0.00,WeatherSnoop3.0,2013-09-15 16:56:00,
2013-09-15 12:01:00,84.6,63.9,29.83,South,175,6.0,-999.0,50,0.00,,,0.00,WeatherSnoop3.0,2013-09-15 17:01:00,
2013-09-15 12:06:00,84.5,64.4,29.83,SSW,212,7.0,-999.0,51,0.00,,,0.00,WeatherSnoop3.0,2013-09-15 17:06:00,
2013-09-15 12:11:00,85.6,64.8,29.83,SW,232,7.0,-999.0,50,0.00,,,0.00,WeatherSnoop3.0,2013-09-15 17:11:00,
2013-09-15 12:16:00,86.4,64.4,29.83,South,188,3.0,-999.0,48,0.00,,,0.00,WeatherSnoop3.0,2013-09-15 17:16:00,
2013-09-15 12:21:00,86.2,64.8,29.82,South,187,2.0,-999.0,49,0.00,,,0.00,WeatherSnoop3.0,2013-09-15 17:21:00,
2013-09-15 12:26:00,86.1,64.7,29.82,SE,131,3.0,-999.0,49,0.00,,,0.00,WeatherSnoop3.0,2013-09-15 17:26:00,
2013-09-15 12:31:00,86.8,65.3,29.82,SW,232,4.0,-999.0,49,0.00,,,0.00,WeatherSnoop3.0,2013-09-15 17:31:00,
2013-09-15 12:36:00,87.2,65.1,29.82,South,186,8.0,-999.0,48,0.00,,,0.00,WeatherSnoop3.0,2013-09-15 17:36:00,
2013-09-15 12:41:00,87.4,65.3,29.82,South,176,7.0,-999.0,48,0.00,,,0.00,WeatherSnoop3.0,2013-09-15 17:41:00,
2013-09-15 12:46:00,87.8,64.4,29.82,SW,222,5.0,-999.0,46,0.00,,,0.00,WeatherSnoop3.0,2013-09-15 17:46:00,
2013-09-15 12:56:00,88.5,65.7,29.81,West,266,4.0,-999.0,47,0.00,,,0.00,WeatherSnoop3.0,2013-09-15 17:56:00,
2013-09-15 13:01:00,89.2,65.0,29.81,South,188,6.0,-999.0,45,0.00,,,0.00,WeatherSnoop3.0,2013-09-15 18:01:00,
2013-09-15 13:06:00,89.3,64.5,29.81,SSW,204,2.0,-999.0,44,0.00,,,0.00,WeatherSnoop3.0,2013-09-15 18:06:00,
2013-09-15 13:11:00,89.3,66.4,29.81,SE,134,5.0,-999.0,47,0.00,,,0.00,WeatherSnoop3.0,2013-09-15 18:11:00,
2013-09-15 13:16:00,89.4,65.2,29.81,South,184,11.0,-999.0,45,0.00,,,0.00,WeatherSnoop3.0,2013-09-15 18:16:00,
2013-09-15 13:21:00,90.2,65.9,29.81,SE,127,5.0,-999.0,45,0.00,,,0.00,WeatherSnoop3.0,2013-09-15 18:21:00,
2013-09-15 13:26:00,90.2,65.9,29.81,ESE,122,8.0,-999.0,45,0.00,,,0.00,WeatherSnoop3.0,2013-09-15 18:26:00,
2013-09-15 13:31:00,90.2,64.6,29.81,SW,226,6.0,-999.0,43,0.00,,,0.00,WeatherSnoop3.0,2013-09-15 18:31:00,
2013-09-15 13:36:00,90.5,64.9,29.81,West,263,6.0,-999.0,43,0.00,,,0.00,WeatherSnoop3.0,2013-09-15 18:36:00,
2013-09-15 13:41:00,90.9,65.9,29.81,SSE,149,4.0,-999.0,44,0.00,,,0.00,WeatherSnoop3.0,2013-09-15 18:41:00,
2013-09-15 13:46:00,91.4,66.4,29.80,SW,221,7.0,-999.0,44,0.00,,,0.00,WeatherSnoop3.0,2013-09-15 18:46:00,
2013-09-15 13:51:00,91.4,65.0,29.80,SW,229,5.0,-999.0,42,0.00,,,0.00,WeatherSnoop3.0,2013-09-15 18:51:00,
2013-09-15 13:56:00,90.6,63.6,29.80,SW,235,3.0,-999.0,41,0.00,,,0.00,WeatherSnoop3.0,2013-09-15 18:56:00,
2013-09-15 14:01:00,90.3,65.4,29.80,SSE,148,5.0,-999.0,44,0.00,,,0.00,WeatherSnoop3.0,2013-09-15 19:01:00,
2013-09-15 14:06:00,90.3,65.4,29.80,SSE,158,4.0,-999.0,44,0.00,,,0.00,WeatherSnoop3.0,2013-09-15 19:06:00,
2013-09-15 14:11:00,90.7,65.1,29.80,South,183,6.0,-999.0,43,0.00,,,0.00,WeatherSnoop3.0,2013-09-15 19:11:00,
2013-09-15 14:16:00,91.2,66.2,29.80,SW,232,11.0,-999.0,44,0.00,,,0.00,WeatherSnoop3.0,2013-09-15 19:16:00,
2013-09-15 14:21:00,91.9,65.5,29.79,ESE,120,3.0,-999.0,42,0.00,,,0.00,WeatherSnoop3.0,2013-09-15 19:21:00,
2013-09-15 14:26:00,92.7,65.5,29.79,SSW,197,3.0,-999.0,41,0.00,,,0.00,WeatherSnoop3.0,2013-09-15 19:26:00,
2013-09-15 14:31:00,93.2,65.2,29.79,SW,215,4.0,-999.0,40,0.00,,,0.00,WeatherSnoop3.0,2013-09-15 19:31:00,
2013-09-15 14:36:00,93.6,64.9,29.79,SE,140,4.0,-999.0,39,0.00,,,0.00,WeatherSnoop3.0,2013-09-15 19:36:00,
2013-09-15 14:41:00,92.8,64.9,29.79,SSW,200,4.0,-999.0,40,0.00,,,0.00,WeatherSnoop3.0,2013-09-15 19:41:00,
2013-09-15 14:46:00,92.6,66.1,29.79,SSE,158,4.0,-999.0,42,0.00,,,0.00,WeatherSnoop3.0,2013-09-15 19:46:00,
2013-09-15 14:51:00,92.4,65.2,29.79,WSW,256,3.0,-999.0,41,0.00,,,0.00,WeatherSnoop3.0,2013-09-15 19:51:00,
2013-09-15 14:56:00,91.8,64.7,29.79,SW,229,7.0,-999.0,41,0.00,,,0.00,WeatherSnoop3.0,2013-09-15 19:56:00,
2013-09-15 15:01:00,91.8,63.3,29.79,SSW,203,4.0,-999.0,39,0.00,,,0.00,WeatherSnoop3.0,2013-09-15 20:01:00,
2013-09-15 15:06:00,91.9,64.8,29.79,SSE,152,2.0,-999.0,41,0.00,,,0.00,WeatherSnoop3.0,2013-09-15 20:06:00,
2013-09-15 15:11:00,91.7,65.3,29.79,WNW,286,1.0,-999.0,42,0.00,,,0.00,WeatherSnoop3.0,2013-09-15 20:11:00,
2013-09-15 15:16:00,91.7,63.2,29.79,West,260,3.0,-999.0,39,0.00,,,0.00,WeatherSnoop3.0,2013-09-15 20:16:00,
2013-09-15 15:21:00,91.8,63.3,29.79,SW,232,3.0,-999.0,39,0.00,,,0.00,WeatherSnoop3.0,2013-09-15 20:21:00,
2013-09-15 15:26:00,91.8,62.5,29.79,West,269,3.0,-999.0,38,0.00,,,0.00,WeatherSnoop3.0,2013-09-15 20:26:00,
2013-09-15 15:31:00,91.7,62.4,29.79,SSW,201,3.0,-999.0,38,0.00,,,0.00,WeatherSnoop3.0,2013-09-15 20:31:00,
2013-09-15 15:36:00,91.7,63.2,29.78,WSW,245,0.0,-999.0,39,0.00,,,0.00,WeatherSnoop3.0,2013-09-15 20:36:00,
2013-09-15 15:41:00,91.4,64.3,29.78,SE,142,0.0,-999.0,41,0.00,,,0.00,WeatherSnoop3.0,2013-09-15 20:41:00,
2013-09-15 15:46:00,91.0,65.4,29.78,SE,125,0.0,-999.0,43,0.00,,,0.00,WeatherSnoop3.0,2013-09-15 20:46:00,
2013-09-15 15:51:00,90.9,66.6,29.77,SE,140,0.0,-999.0,45,0.00,,,0.00,WeatherSnoop3.0,2013-09-15 20:51:00,
2013-09-15 15:56:00,91.3,64.9,29.77,ESE,118,0.0,-999.0,42,0.00,,,0.00,WeatherSnoop3.0,2013-09-15 20:56:00,
2013-09-15 16:01:00,92.3,64.4,29.77,SSW,208,3.0,-999.0,40,0.00,,,0.00,WeatherSnoop3.0,2013-09-15 21:01:00,
2013-09-15 16:06:00,92.5,63.9,29.77,South,181,1.0,-999.0,39,0.00,,,0.00,WeatherSnoop3.0,2013-09-15 21:06:00,
2013-09-15 16:11:00,92.8,63.4,29.77,SSW,204,2.0,-999.0,38,0.00,,,0.00,WeatherSnoop3.0,2013-09-15 21:11:00,
2013-09-15 16:16:00,93.4,61.6,29.77,WSW,255,4.0,-999.0,35,0.00,,,0.00,WeatherSnoop3.0,2013-09-15 21:16:00,
2013-09-15 16:21:00,93.3,60.7,29.77,WSW,245,2.0,-999.0,34,0.00,,,0.00,WeatherSnoop3.0,2013-09-15 21:21:00,
2013-09-15 16:26:00,93.3,62.3,29.77,WSW,238,2.0,-999.0,36,0.00,,,0.00,WeatherSnoop3.0,2013-09-15 21:26:00,
2013-09-15 16:31:00,93.1,61.3,29.77,SW,226,4.0,-999.0,35,0.00,,,0.00,WeatherSnoop3.0,2013-09-15 21:31:00,
2013-09-15 16:36:00,93.0,62.1,29.77,SW,221,1.0,-999.0,36,0.00,,,0.00,WeatherSnoop3.0,2013-09-15 21:36:00,
2013-09-15 16:41:00,92.8,62.7,29.77,ESE,122,2.0,-999.0,37,0.00,,,0.00,WeatherSnoop3.0,2013-09-15 21:41:00,
2013-09-15 16:46:00,92.6,61.7,29.77,WSW,240,6.0,-999.0,36,0.00,,,0.00,WeatherSnoop3.0,2013-09-15 21:46:00,
2013-09-15 16:51:00,92.5,61.6,29.77,SW,225,1.0,-999.0,36,0.00,,,0.00,WeatherSnoop3.0,2013-09-15 21:51:00,
2013-09-15 16:56:00,92.5,63.1,29.77,SSW,204,3.0,-999.0,38,0.00,,,0.00,WeatherSnoop3.0,2013-09-15 21:56:00,
2013-09-15 17:01:00,92.4,62.3,29.77,SW,221,7.0,-999.0,37,0.00,,,0.00,WeatherSnoop3.0,2013-09-15 22:01:00,
2013-09-15 17:06:00,92.5,62.4,29.77,WSW,242,7.0,-999.0,37,0.00,,,0.00,WeatherSnoop3.0,2013-09-15 22:06:00,
2013-09-15 17:11:00,93.4,63.2,29.77,SW,226,4.0,-999.0,37,0.00,,,0.00,WeatherSnoop3.0,2013-09-15 22:11:00,
2013-09-15 17:16:00,93.7,62.7,29.77,SE,143,3.0,-999.0,36,0.00,,,0.00,WeatherSnoop3.0,2013-09-15 22:16:00,
2013-09-15 17:21:00,93.6,62.6,29.77,South,183,4.0,-999.0,36,0.00,,,0.00,WeatherSnoop3.0,2013-09-15 22:21:00,
2013-09-15 17:26:00,93.7,62.7,29.78,SSE,159,3.0,-999.0,36,0.00,,,0.00,WeatherSnoop3.0,2013-09-15 22:26:00,
2013-09-15 17:31:00,93.1,61.3,29.78,SSW,204,3.0,-999.0,35,0.00,,,0.00,WeatherSnoop3.0,2013-09-15 22:31:00,
2013-09-15 17:36:00,92.7,61.0,29.78,WSW,253,3.0,-999.0,35,0.00,,,0.00,WeatherSnoop3.0,2013-09-15 22:36:00,
2013-09-15 17:41:00,92.3,60.6,29.78,WSW,248,2.0,-999.0,35,0.00,,,0.00,WeatherSnoop3.0,2013-09-15 22:41:00,
2013-09-15 17:46:00,92.1,61.3,29.78,SW,226,1.0,-999.0,36,0.00,,,0.00,WeatherSnoop3.0,2013-09-15 22:46:00,
2013-09-15 17:51:00,88.1,64.0,29.81,North,4,13.0,-999.0,45,0.00,,,0.00,WeatherSnoop3.0,2013-09-15 22:51:00,
2013-09-15 17:56:00,82.0,63.7,29.81,NNW,335,13.0,-999.0,54,0.00,,,0.00,WeatherSnoop3.0,2013-09-15 22:56:00,
2013-09-15 18:01:00,79.9,64.3,29.83,NNW,345,9.0,-999.0,59,0.00,,,0.00,WeatherSnoop3.0,2013-09-15 23:01:00,
2013-09-15 18:06:00,78.7,64.6,29.82,NNE,27,11.0,-999.0,62,0.00,,,0.00,WeatherSnoop3.0,2013-09-15 23:06:00,
2013-09-15 18:11:00,78.2,65.0,29.82,ENE,77,6.0,-999.0,64,0.00,,,0.00,WeatherSnoop3.0,2013-09-15 23:11:00,
2013-09-15 18:16:00,78.0,64.4,29.82,NNE,15,6.0,-999.0,63,0.00,,,0.00,WeatherSnoop3.0,2013-09-15 23:16:00,
2013-09-15 18:21:00,77.9,64.7,29.82,NW,312,5.0,-999.0,64,0.00,,,0.00,WeatherSnoop3.0,2013-09-15 23:21:00,
2013-09-15 18:26:00,77.9,65.2,29.82,NE,49,9.0,-999.0,65,0.00,,,0.00,WeatherSnoop3.0,2013-09-15 23:26:00,
2013-09-15 18:31:00,78.1,65.8,29.83,NE,44,6.0,-999.0,66,0.00,,,0.00,WeatherSnoop3.0,2013-09-15 23:31:00,
2013-09-15 18:36:00,77.9,66.0,29.84,North,358,4.0,-999.0,67,0.00,,,0.00,WeatherSnoop3.0,2013-09-15 23:36:00,
2013-09-15 18:41:00,77.7,66.3,29.84,ENE,61,4.0,-999.0,68,0.00,,,0.00,WeatherSnoop3.0,2013-09-15 23:41:00,
2013-09-15 18:46:00,77.5,66.5,29.85,NE,34,6.0,-999.0,69,0.00,,,0.00,WeatherSnoop3.0,2013-09-15 23:46:00,
2013-09-15 18:51:00,77.5,66.5,29.84,NNE,22,8.0,-999.0,69,0.00,,,0.00,WeatherSnoop3.0,2013-09-15 23:51:00,
2013-09-15 18:56:00,76.9,66.8,29.84,NNE,24,9.0,-999.0,71,0.00,,,0.00,WeatherSnoop3.0,2013-09-15 23:56:00,
2013-09-15 19:01:00,76.1,66.8,29.84,ENE,61,7.0,-999.0,73,0.00,,,0.00,WeatherSnoop3.0,2013-09-16 00:01:00,
2013-09-15 19:06:00,75.6,67.1,29.84,NNE,20,10.0,-999.0,75,0.00,,,0.00,WeatherSnoop3.0,2013-09-16 00:06:00,
2013-09-15 19:11:00,74.8,67.1,29.83,NNE,28,7.0,-999.0,77,0.00,,,0.00,WeatherSnoop3.0,2013-09-16 00:11:00,
2013-09-15 19:16:00,74.3,67.4,29.83,East,89,4.0,-999.0,79,0.00,,,0.00,WeatherSnoop3.0,2013-09-16 00:16:00,
2013-09-15 19:21:00,74.0,67.1,29.82,NNE,26,5.0,-999.0,79,0.00,,,0.00,WeatherSnoop3.0,2013-09-16 00:21:00,
2013-09-15 19:26:00,73.9,67.3,29.82,North,8,2.0,-999.0,80,0.00,,,0.00,WeatherSnoop3.0,2013-09-16 00:26:00,
2013-09-15 19:31:00,73.7,67.5,29.83,NNE,18,2.0,-999.0,81,0.00,,,0.00,WeatherSnoop3.0,2013-09-16 00:31:00,
2013-09-15 19:36:00,73.5,67.7,29.83,NNE,23,3.0,-999.0,82,0.00,,,0.00,WeatherSnoop3.0,2013-09-16 00:36:00,
2013-09-15 19:41:00,73.4,67.6,29.84,NE,35,5.0,-999.0,82,0.00,,,0.00,WeatherSnoop3.0,2013-09-16 00:41:00,
2013-09-15 19:46:00,73.4,67.9,29.85,North,358,1.0,-999.0,83,0.00,,,0.00,WeatherSnoop3.0,2013-09-16 00:46:00,
2013-09-15 19:51:00,73.3,67.8,29.86,NE,36,4.0,-999.0,83,0.00,,,0.00,WeatherSnoop3.0,2013-09-16 00:51:00,
2013-09-15 19:56:00,72.5,68.1,29.86,North,5,7.0,-999.0,86,0.00,,,0.00,WeatherSnoop3.0,2013-09-16 00:56:00,
2013-09-15 20:01:00,71.7,67.9,29.85,NE,39,5.0,-999.0,88,0.00,,,0.01,WeatherSnoop3.0,2013-09-16 01:01:00,
2013-09-15 20:06:00,71.4,68.0,29.87,WNW,295,0.0,-999.0,89,0.00,,,0.01,WeatherSnoop3.0,2013-09-16 01:06:00,
2013-09-15 20:11:00,71.3,68.2,29.90,SSE,167,2.0,-999.0,90,0.00,,,0.01,WeatherSnoop3.0,2013-09-16 01:11:00,
2013-09-15 20:16:00,71.2,68.1,29.88,NNE,32,4.0,-999.0,90,0.00,,,0.01,WeatherSnoop3.0,2013-09-16 01:16:00,
2013-09-15 20:21:00,70.9,67.8,29.89,NNE,30,4.0,-999.0,90,0.00,,,0.01,WeatherSnoop3.0,2013-09-16 01:21:00,
2013-09-15 20:26:00,70.9,67.8,29.89,NNE,26,1.0,-999.0,90,0.00,,,0.01,WeatherSnoop3.0,2013-09-16 01:26:00,
2013-09-15 20:31:00,70.9,67.8,29.91,SE,138,2.0,-999.0,90,0.00,,,0.01,WeatherSnoop3.0,2013-09-16 01:31:00,
2013-09-15 20:36:00,70.9,68.1,29.91,NE,44,2.0,-999.0,91,0.00,,,0.01,WeatherSnoop3.0,2013-09-16 01:36:00,
2013-09-15 20:41:00,70.7,68.3,29.90,NE,50,0.0,-999.0,92,0.00,,,0.01,WeatherSnoop3.0,2013-09-16 01:41:00,
2013-09-15 20:51:00,70.4,67.6,29.91,NNE,32,1.0,-999.0,91,0.00,,,0.01,WeatherSnoop3.0,2013-09-16 01:51:00,
2013-09-15 20:56:00,70.2,67.4,29.90,NNE,23,1.0,-999.0,91,0.00,,,0.02,WeatherSnoop3.0,2013-09-16 01:56:00,
2013-09-15 21:01:00,70.0,66.9,29.90,North,352,5.0,-999.0,90,0.00,,,0.02,WeatherSnoop3.0,2013-09-16 02:01:00,
2013-09-15 21:06:00,69.8,66.7,29.90,NNE,18,2.0,-999.0,90,0.00,,,0.02,WeatherSnoop3.0,2013-09-16 02:06:00,
2013-09-15 21:11:00,69.5,66.1,29.91,NE,44,1.0,-999.0,89,0.00,,,0.02,WeatherSnoop3.0,2013-09-16 02:11:00,
2013-09-15 21:16:00,69.3,65.9,29.91,East,99,2.0,-999.0,89,0.00,,,0.02,WeatherSnoop3.0,2013-09-16 02:16:00,
2013-09-15 21:21:00,69.2,66.1,29.92,North,351,0.0,-999.0,90,0.00,,,0.02,WeatherSnoop3.0,2013-09-16 02:21:00,
2013-09-15 21:26:00,69.1,66.0,29.92,NNE,30,1.0,-999.0,90,0.00,,,0.02,WeatherSnoop3.0,2013-09-16 02:26:00,
2013-09-15 21:31:00,68.9,65.8,29.92,NE,39,2.0,-999.0,90,0.00,,,0.02,WeatherSnoop3.0,2013-09-16 02:31:00,
2013-09-15 21:36:00,68.8,66.1,29.92,NNE,15,3.0,-999.0,91,0.00,,,0.02,WeatherSnoop3.0,2013-09-16 02:36:00,
2013-09-15 21:41:00,68.7,66.0,29.93,NE,56,1.0,-999.0,91,0.00,,,0.02,WeatherSnoop3.0,2013-09-16 02:41:00,
2013-09-15 21:46:00,68.6,65.5,29.93,NNE,22,2.0,-999.0,90,0.00,,,0.02,WeatherSnoop3.0,2013-09-16 02:46:00,
2013-09-15 21:51:00,68.5,65.8,29.94,North,351,2.0,-999.0,91,0.00,,,0.02,WeatherSnoop3.0,2013-09-16 02:51:00,
2013-09-15 21:56:00,68.4,65.7,29.94,NE,46,4.0,-999.0,91,0.00,,,0.03,WeatherSnoop3.0,2013-09-16 02:56:00,
2013-09-15 22:01:00,68.4,65.7,29.93,NE,43,6.0,-999.0,91,0.00,,,0.03,WeatherSnoop3.0,2013-09-16 03:01:00,
2013-09-15 22:06:00,68.4,65.7,29.92,NE,43,4.0,-999.0,91,0.00,,,0.03,WeatherSnoop3.0,2013-09-16 03:06:00,
2013-09-15 22:11:00,68.4,66.0,29.91,NE,44,3.0,-999.0,92,0.04,,,0.04,WeatherSnoop3.0,2013-09-16 03:11:00,
2013-09-15 22:16:00,68.3,65.9,29.90,NNE,23,2.0,-999.0,92,0.04,,,0.04,WeatherSnoop3.0,2013-09-16 03:16:00,
2013-09-15 22:21:00,68.2,65.8,29.90,NE,44,3.0,-999.0,92,0.04,,,0.04,WeatherSnoop3.0,2013-09-16 03:21:00,
2013-09-15 22:26:00,68.2,66.1,29.90,ENE,78,5.0,-999.0,93,0.04,,,0.05,WeatherSnoop3.0,2013-09-16 03:26:00,
2013-09-15 22:31:00,68.4,66.3,29.91,ENE,63,5.0,-999.0,93,0.04,,,0.05,WeatherSnoop3.0,2013-09-16 03:31:00,
2013-09-15 22:36:00,68.4,66.3,29.91,NE,49,3.0,-999.0,93,0.04,,,0.05,WeatherSnoop3.0,2013-09-16 03:36:00,
2013-09-15 22:41:00,68.4,66.3,29.92,NNE,23,4.0,-999.0,93,0.05,,,0.06,WeatherSnoop3.0,2013-09-16 03:41:00,
2013-09-15 22:46:00,68.4,66.3,29.93,North,354,4.0,-999.0,93,0.05,,,0.06,WeatherSnoop3.0,2013-09-16 03:46:00,
2013-09-15 22:51:00,68.3,66.5,29.93,NNE,17,5.0,-999.0,94,0.04,,,0.06,WeatherSnoop3.0,2013-09-16 03:51:00,
2013-09-15 22:56:00,68.3,66.5,29.93,NE,46,6.0,-999.0,94,0.00,,,0.06,WeatherSnoop3.0,2013-09-16 03:56:00,
2013-09-15 23:01:00,68.3,66.5,29.93,NE,48,4.0,-999.0,94,0.00,,,0.06,WeatherSnoop3.0,2013-09-16 04:01:00,
2013-09-15 23:06:00,68.2,66.4,29.94,NNE,32,6.0,-999.0,94,0.00,,,0.06,WeatherSnoop3.0,2013-09-16 04:06:00,
2013-09-15 23:11:00,68.2,66.4,29.94,North,4,2.0,-999.0,94,0.00,,,0.06,WeatherSnoop3.0,2013-09-16 04:11:00,
2013-09-15 23:16:00,68.2,66.7,29.95,NE,43,3.0,-999.0,95,0.00,,,0.06,WeatherSnoop3.0,2013-09-16 04:16:00,
2013-09-15 23:21:00,68.3,66.8,29.95,NE,39,6.0,-999.0,95,0.00,,,0.06,WeatherSnoop3.0,2013-09-16 04:21:00,
2013-09-15 23:26:00,68.2,66.7,29.95,NE,34,2.0,-999.0,95,0.00,,,0.06,WeatherSnoop3.0,2013-09-16 04:26:00,
2013-09-15 23:31:00,67.9,66.1,29.95,North,1,5.0,-999.0,94,0.00,,,0.06,WeatherSnoop3.0,2013-09-16 04:31:00,
2013-09-15 23:36:00,67.7,65.9,29.95,ENE,71,4.0,-999.0,94,0.00,,,0.06,WeatherSnoop3.0,2013-09-16 04:36:00,
2013-09-15 23:41:00,67.6,65.8,29.95,NNE,22,10.0,-999.0,94,0.00,,,0.06,WeatherSnoop3.0,2013-09-16 04:41:00,
2013-09-15 23:46:00,67.5,65.7,29.94,NNW,347,8.0,-999.0,94,0.00,,,0.06,WeatherSnoop3.0,2013-09-16 04:46:00,
2013-09-15 23:51:00,67.4,65.3,29.94,NNW,343,7.0,-999.0,93,0.00,,,0.06,WeatherSnoop3.0,2013-09-16 04:51:00,
2013-09-15 23:56:00,67.3,65.2,29.94,ENE,65,8.0,-999.0,93,0.00,,,0.06,WeatherSnoop3.0,2013-09-16 04:56:00,